�N����,����,�~����,�C��,���x,�C��,����,���ϕ���,�ő�u�ԕ���,�ő厞����,���˗�,�I�_���x,�n�����x,�ő啗���N��,DTYPE
"17/04/30","00:10",0.0,10.1,90.9,1004.8,274.7,1.7,2.4,269.7,0.00,8.7,13.9,"00:03:28",1
"17/04/30","00:20",0.0,9.9,90.3,1004.8,301.2,1.7,2.4,314.8,0.00,8.4,13.7,"00:18:08",1
"17/04/30","00:30",0.0,9.4,91.2,1005.0,328.5,2.2,2.7,332.3,0.00,8.1,13.7,"00:22:56",1
"17/04/30","00:40",0.0,9.2,92.1,1004.8,312.1,1.8,2.4,324.4,0.00,8.0,13.5,"00:30:24",1
"17/04/30","00:50",0.0,8.9,92.7,1005.2,298.3,1.8,2.2,310.3,0.00,7.8,13.4,"00:43:36",1
"17/04/30","01:00",0.0,8.9,93.3,1005.0,296.2,1.6,1.9,294.1,0.00,7.9,13.6,"00:52:40",1
"17/04/30","01:10",0.0,8.9,93.7,1005.0,290.8,1.7,2.5,327.2,0.00,8.0,13.4,"01:05:44",1
"17/04/30","01:20",0.0,8.7,93.8,1005.2,307.1,1.8,2.4,320.3,0.00,7.8,13.3,"01:13:52",1
"17/04/30","01:30",0.0,8.7,94.2,1005.0,295.6,1.8,2.4,311.9,0.00,7.9,13.4,"01:27:04",1
"17/04/30","01:40",0.0,8.8,94.2,1005.0,291.5,1.8,2.2,282.4,0.00,8.0,13.3,"01:33:28",1
"17/04/30","01:50",0.0,8.8,94.2,1005.2,303.6,1.8,3.4,323.2,0.00,8.0,13.1,"01:49:20",1
"17/04/30","02:00",0.0,8.7,94.0,1005.2,319.4,1.8,2.4,312.8,0.00,7.8,13.1,"01:53:36",1
"17/04/30","02:10",0.0,8.4,93.8,1005.5,311.7,1.6,1.8,314.6,0.00,7.5,12.9,"02:00:08",1
"17/04/30","02:20",0.0,8.1,94.2,1005.0,314.2,1.8,2.9,324.2,0.00,7.3,13.1,"02:17:28",1
"17/04/30","02:30",0.0,8.0,94.9,1005.2,318.4,2.3,2.6,326.3,0.00,7.3,13.0,"02:20:40",1
"17/04/30","02:40",0.0,7.8,95.0,1005.2,317.5,2.1,3.2,321.5,0.00,7.1,12.9,"02:30:02",1
"17/04/30","02:50",0.0,7.7,95.7,1005.0,328.1,2.3,3.1,319.3,0.00,7.1,12.9,"02:40:32",1
"17/04/30","03:00",0.0,7.7,95.7,1005.2,306.5,1.6,2.5,322.6,0.00,7.1,12.9,"02:51:04",1
"17/04/30","03:10",0.0,7.4,95.7,1005.0,299.2,1.5,2.1,311.4,0.00,6.8,12.7,"03:03:36",1
"17/04/30","03:20",0.0,7.4,96.1,1005.2,325.6,2.1,2.9,318.4,0.00,6.9,12.7,"03:19:44",1
"17/04/30","03:30",0.0,7.3,96.4,1005.5,318.2,2.3,2.8,318.9,0.00,6.8,12.6,"03:23:04",1
"17/04/30","03:40",0.0,7.3,96.7,1005.5,302.8,1.8,2.4,318.3,0.00,6.9,12.5,"03:38:32",1
"17/04/30","03:50",0.0,7.5,96.8,1005.2,292.1,1.7,2.1,303.5,0.00,7.1,12.5,"03:49:04",1
"17/04/30","04:00",0.0,7.5,97.0,1005.5,305.8,2.1,2.6,324.9,0.00,7.1,12.5,"03:53:04",1
"17/04/30","04:10",0.0,7.3,96.9,1005.5,301.6,1.5,2.0,312.3,0.00,6.9,12.5,"04:00:24",1
"17/04/30","04:20",0.0,7.2,97.0,1005.5,302.9,1.2,1.7,305.7,0.00,6.8,12.6,"04:13:52",1
"17/04/30","04:30",0.0,7.0,97.4,1005.2,318.5,2.8,3.6,319.3,0.00,6.7,12.4,"04:22:16",1
"17/04/30","04:40",0.0,7.1,98.0,1005.5,313.5,2.0,2.1,321.0,0.00,6.8,12.3,"04:30:08",1
"17/04/30","04:50",0.0,7.6,96.6,1005.5,325.0,2.2,2.7,321.9,0.00,7.1,12.3,"04:43:04",1
"17/04/30","05:00",0.0,7.1,97.4,1005.7,318.5,2.5,3.1,322.4,0.00,6.8,12.4,"04:52:08",1
"17/04/30","05:10",0.0,6.9,97.6,1006.0,303.8,1.7,2.0,311.1,0.00,6.6,12.2,"05:02:00",1
"17/04/30","05:20",0.0,7.0,97.7,1005.7,293.3,0.8,1.6,295.3,0.00,6.7,12.1,"05:19:36",1
"17/04/30","05:30",0.0,6.9,97.9,1006.2,307.9,2.1,2.8,319.1,0.00,6.6,12.1,"05:26:32",1
"17/04/30","05:40",0.0,6.9,97.9,1005.7,307.8,1.8,2.7,324.2,0.00,6.6,12.0,"05:30:08",1
"17/04/30","05:50",0.0,6.9,98.4,1005.7,311.5,2.0,2.6,318.8,0.00,6.7,12.0,"05:44:08",1
"17/04/30","06:00",0.0,7.5,97.3,1005.7,307.5,1.8,2.7,319.3,0.00,7.1,12.2,"05:53:52",1
"17/04/30","06:10",0.0,7.8,98.3,1005.2,302.9,0.5,1.3,315.8,0.01,7.6,12.1,"06:07:36",1
"17/04/30","06:20",0.0,8.6,97.2,1006.2,299.5,1.0,1.7,310.2,0.01,8.2,12.0,"06:19:52",1
"17/04/30","06:30",0.0,8.9,98.2,1006.2,304.8,1.1,1.9,320.6,0.02,8.7,12.1,"06:20:48",1
"17/04/30","06:40",0.0,9.9,96.9,1006.4,302.0,1.1,1.7,313.9,0.03,9.5,12.2,"06:32:40",1
"17/04/30","06:50",0.0,10.2,96.9,1006.2,323.7,1.6,2.2,324.7,0.05,9.8,12.1,"06:41:28",1
"17/04/30","07:00",0.0,10.8,94.9,1006.4,306.4,1.0,1.7,310.3,0.06,10.1,12.2,"06:51:52",1
"17/04/30","07:10",0.0,11.6,90.7,1006.7,280.2,0.3,0.9,268.1,0.08,10.2,12.1,"07:02:56",1
"17/04/30","07:20",0.0,12.4,87.5,1006.7,346.8,0.2,0.6,297.0,0.10,10.4,12.3,"07:18:16",1
"17/04/30","07:30",0.0,13.1,85.5,1006.7,265.7,0.3,0.6,284.0,0.12,10.8,12.4,"07:20:08",1
"17/04/30","07:40",0.0,13.5,83.3,1006.9,247.6,0.5,1.0,121.6,0.16,10.8,12.3,"07:36:16",1
"17/04/30","07:50",0.0,14.0,80.4,1007.4,92.1,0.6,1.3,109.5,0.19,10.7,12.4,"07:40:08",1
"17/04/30","08:00",0.0,14.6,78.8,1007.4,287.3,0.7,1.3,327.2,0.22,11.0,12.7,"07:52:08",1
"17/04/30","08:10",0.0,14.8,76.0,1007.6,284.4,0.8,1.7,314.5,0.25,10.7,12.7,"08:04:32",1
"17/04/30","08:20",0.0,15.9,72.4,1007.4,281.4,0.5,1.1,311.8,0.27,11.0,12.8,"08:19:52",1
"17/04/30","08:30",0.0,15.9,73.1,1007.6,257.5,0.8,1.7,204.2,0.30,11.1,12.9,"08:27:36",1
"17/04/30","08:40",0.0,16.9,69.1,1007.6,259.2,0.3,1.6,173.5,0.32,11.2,12.9,"08:33:28",1
"17/04/30","08:50",0.0,17.0,67.3,1006.9,124.2,1.0,2.2,172.7,0.35,10.9,13.1,"08:40:32",1
"17/04/30","09:00",0.0,17.4,66.9,1007.1,308.3,1.0,2.2,97.0,0.37,11.2,13.2,"08:52:24",1
"17/04/30","09:10",0.0,17.8,63.8,1006.7,200.3,1.2,2.2,148.4,0.39,10.9,13.2,"09:00:40",1
"17/04/30","09:20",0.0,18.4,61.6,1006.4,186.9,1.2,2.6,231.6,0.42,10.9,13.6,"09:12:00",1
"17/04/30","09:30",0.0,19.0,60.4,1006.7,187.2,1.2,3.6,198.5,0.44,11.2,13.6,"09:23:36",1
"17/04/30","09:40",0.0,19.3,58.9,1006.4,183.0,1.1,3.1,213.6,0.46,11.1,13.6,"09:32:56",1
"17/04/30","09:50",0.0,19.5,58.0,1006.2,177.5,1.5,3.6,197.5,0.48,11.1,14.1,"09:40:02",1
"17/04/30","10:00",0.0,19.7,55.0,1006.0,163.6,1.5,2.8,194.5,0.49,10.5,14.1,"09:50:08",1
"17/04/30","10:10",0.0,20.2,53.4,1005.7,158.7,1.2,3.1,184.5,0.51,10.5,14.1,"10:02:08",1
"17/04/30","10:20",0.0,20.5,54.6,1005.5,164.5,1.5,2.7,172.2,0.52,11.1,14.7,"10:10:08",1
"17/04/30","10:30",0.0,21.1,57.0,1005.2,159.1,1.7,2.9,156.2,0.54,12.3,14.7,"10:25:04",1
"17/04/30","10:40",0.0,20.9,50.3,1005.2,152.3,2.0,3.9,132.6,0.55,10.2,15.1,"10:35:36",1
"17/04/30","10:50",0.0,21.3,51.4,1005.0,111.3,1.5,4.7,114.4,0.57,10.9,15.0,"10:46:32",1
"17/04/30","11:00",0.0,21.8,48.4,1004.8,144.6,1.7,3.3,107.4,0.58,10.5,15.5,"10:57:36",1
"17/04/30","11:10",0.0,22.7,47.1,1004.5,136.6,1.0,2.8,98.0,0.58,10.9,15.7,"11:04:32",1
"17/04/30","11:20",0.0,23.2,43.2,1004.1,83.1,1.3,3.1,50.1,0.59,10.0,15.9,"11:16:16",1
"17/04/30","11:30",0.0,23.7,39.5,1004.1,91.3,1.7,4.1,124.5,0.60,9.2,16.2,"11:28:00",1
"17/04/30","11:40",0.0,24.2,36.5,1004.1,175.2,3.0,5.6,190.9,0.60,8.4,16.3,"11:31:52",1
"17/04/30","11:50",0.0,24.7,34.5,1003.6,167.4,2.8,4.8,176.8,0.61,8.1,16.6,"11:47:44",1
"17/04/30","12:00",0.0,25.0,34.4,1003.4,188.9,2.6,5.0,191.4,0.62,8.3,17.1,"11:58:00",1
"17/04/30","12:10",0.0,25.2,33.7,1003.1,198.3,1.8,4.7,248.2,0.62,8.1,17.0,"12:00:16",1
"17/04/30","12:20",0.0,25.0,35.9,1003.1,178.0,3.4,6.3,203.9,0.62,8.9,17.3,"12:16:16",1
"17/04/30","12:30",0.0,25.1,35.0,1003.4,175.2,4.0,6.0,191.4,0.61,8.6,17.6,"12:21:20",1
"17/04/30","12:40",0.0,25.6,33.8,1002.9,188.0,3.1,5.8,164.9,0.61,8.5,17.8,"12:36:48",1
"17/04/30","12:50",0.0,26.3,33.2,1002.2,296.2,1.0,2.8,214.6,0.61,8.9,17.9,"12:40:40",1
"17/04/30","13:00",0.0,26.3,33.6,1002.4,248.0,2.0,4.8,225.7,0.60,9.1,18.1,"12:50:02",1
"17/04/30","13:10",0.0,26.6,30.0,1002.6,216.2,2.0,5.5,222.0,0.60,7.7,18.4,"13:06:40",1
"17/04/30","13:20",0.0,26.5,30.5,1002.6,257.3,2.6,6.7,221.2,0.59,7.8,18.7,"13:18:40",1
"17/04/30","13:30",0.0,26.5,30.0,1002.4,229.9,2.5,4.9,212.6,0.58,7.6,18.6,"13:29:44",1
"17/04/30","13:40",0.0,26.6,28.8,1002.6,206.4,3.4,7.5,230.4,0.57,7.1,18.8,"13:36:56",1
"17/04/30","13:50",0.0,27.2,30.0,1002.4,244.2,2.1,4.5,223.7,0.56,8.2,18.7,"13:48:40",1
"17/04/30","14:00",0.0,27.3,29.6,1002.4,243.5,1.5,3.2,187.9,0.55,8.1,18.9,"13:51:20",1
"17/04/30","14:10",0.0,27.0,29.1,1002.6,232.0,2.5,6.0,212.6,0.54,7.6,18.8,"14:00:02",1
"17/04/30","14:20",0.0,26.7,28.8,1002.6,240.1,2.2,6.4,193.4,0.52,7.1,18.9,"14:10:08",1
"17/04/30","14:30",0.0,26.9,30.5,1002.4,234.6,2.1,5.0,202.3,0.50,8.2,19.0,"14:23:52",1
"17/04/30","14:40",0.0,27.2,28.5,1002.2,191.7,2.3,5.2,208.7,0.49,7.4,18.9,"14:37:28",1
"17/04/30","14:50",0.0,27.4,29.8,1002.4,210.4,2.2,5.1,187.1,0.46,8.2,19.0,"14:48:32",1
"17/04/30","15:00",0.0,27.6,26.5,1001.9,277.8,1.8,4.0,262.2,0.45,6.7,19.1,"14:57:44",1
"17/04/30","15:10",0.0,27.4,27.6,1001.9,313.1,3.0,5.8,323.2,0.42,7.1,19.0,"15:08:00",1
"17/04/30","15:20",0.0,27.5,26.0,1001.7,302.2,2.2,5.2,293.6,0.40,6.3,19.0,"15:16:08",1
"17/04/30","15:30",0.0,27.6,25.5,1001.7,297.5,2.2,4.2,297.5,0.38,6.1,19.1,"15:29:28",1
"17/04/30","15:40",0.0,27.1,26.2,1001.7,234.5,2.3,5.0,239.6,0.35,6.1,19.2,"15:34:56",1
"17/04/30","15:50",0.0,27.5,26.3,1001.5,297.0,2.2,5.9,207.5,0.33,6.5,19.2,"15:40:40",1
"17/04/30","16:00",0.0,27.5,26.7,1001.9,303.1,2.8,6.5,355.9,0.31,6.7,19.1,"15:50:32",1
"17/04/30","16:10",0.0,27.1,28.6,1001.9,256.9,2.6,6.8,319.7,0.28,7.4,18.9,"16:08:00",1
"17/04/30","16:20",0.0,26.9,26.6,1001.9,259.6,2.2,4.8,226.9,0.25,6.2,19.0,"16:15:20",1
"17/04/30","16:30",0.0,26.6,26.9,1002.2,247.4,2.6,5.7,225.0,0.23,6.1,19.2,"16:28:40",1
"17/04/30","16:40",0.0,26.1,27.7,1002.2,235.7,3.4,5.6,230.8,0.20,6.1,18.9,"16:32:56",1
"17/04/30","16:50",0.0,26.4,29.2,1002.4,265.9,2.0,5.6,346.7,0.18,7.1,18.9,"16:47:52",1
"17/04/30","17:00",0.0,26.3,28.6,1002.6,247.4,2.1,4.0,258.8,0.15,6.7,18.7,"16:59:52",1
"17/04/30","17:10",0.0,25.7,30.7,1002.9,233.9,2.8,6.8,231.2,0.13,7.2,18.7,"17:00:24",1
"17/04/30","17:20",0.0,25.3,29.8,1003.1,245.7,2.3,4.1,251.5,0.11,6.4,18.7,"17:13:28",1
"17/04/30","17:30",0.0,25.0,31.3,1003.1,230.5,2.6,5.8,223.3,0.09,6.9,18.4,"17:21:20",1
"17/04/30","17:40",0.0,24.7,31.1,1003.1,241.6,2.6,5.7,227.1,0.06,6.5,18.4,"17:39:20",1
"17/04/30","17:50",0.0,24.3,31.0,1003.1,233.6,2.6,4.9,182.9,0.04,6.1,18.5,"17:46:00",1
"17/04/30","18:00",0.0,24.3,31.7,1003.1,253.3,2.0,4.0,263.0,0.02,6.5,18.5,"17:54:16",1
"17/04/30","18:10",0.0,23.9,32.1,1003.4,255.5,1.7,4.0,231.8,0.01,6.3,18.1,"18:02:32",1
"17/04/30","18:20",0.0,23.6,32.9,1003.4,264.4,1.5,3.2,239.2,0.01,6.4,18.2,"18:14:00",1
"17/04/30","18:30",0.0,23.2,33.1,1003.4,263.9,1.2,3.1,245.9,0.00,6.1,18.1,"18:29:04",1
"17/04/30","18:40",0.0,22.9,34.5,1003.4,301.5,1.5,2.5,327.1,0.00,6.5,17.9,"18:32:48",1
"17/04/30","18:50",0.0,22.4,36.8,1003.8,330.5,1.6,3.2,328.1,0.00,7.0,17.8,"18:42:40",1
"17/04/30","19:00",0.0,21.6,40.2,1003.8,340.5,1.2,2.2,342.4,0.00,7.5,17.6,"18:58:00",1
"17/04/30","19:10",0.0,20.5,44.2,1003.8,344.5,0.6,1.4,46.2,0.00,7.9,17.3,"19:08:00",1
"17/04/30","19:20",0.0,19.5,49.0,1004.1,338.3,1.3,2.6,339.2,0.00,8.6,17.3,"19:15:44",1
"17/04/30","19:30",0.0,18.6,51.4,1004.5,329.2,1.3,2.1,337.4,0.00,8.4,17.1,"19:26:48",1
"17/04/30","19:40",0.0,18.3,51.4,1004.8,312.9,1.6,2.7,341.3,0.00,8.2,17.0,"19:31:12",1
"17/04/30","19:50",0.0,18.1,53.4,1004.8,309.5,2.0,3.4,331.3,0.00,8.5,17.1,"19:41:52",1
"17/04/30","20:00",0.0,17.7,56.8,1005.0,312.1,1.6,2.1,307.7,0.00,9.1,16.8,"19:55:12",1
"17/04/30","20:10",0.0,17.1,58.2,1005.2,324.5,1.1,1.3,340.2,0.00,8.9,16.7,"20:01:28",1
"17/04/30","20:20",0.0,16.9,59.2,1005.2,329.9,1.8,2.6,338.7,0.00,8.9,16.7,"20:13:52",1
"17/04/30","20:30",0.0,16.7,60.0,1005.5,302.0,1.5,2.1,333.5,0.00,8.9,16.7,"20:26:48",1
"17/04/30","20:40",0.0,16.6,59.9,1005.7,297.9,1.5,2.1,324.2,0.00,8.8,16.5,"20:30:08",1
"17/04/30","20:50",0.0,16.5,60.2,1005.7,303.2,1.6,2.4,321.3,0.00,8.8,16.5,"20:47:20",1
"17/04/30","21:00",0.0,16.4,60.7,1006.0,286.8,1.3,2.2,338.3,0.00,8.8,16.5,"20:56:40",1
"17/04/30","21:10",0.0,16.2,61.6,1006.0,274.1,1.2,1.8,310.8,0.00,8.9,16.3,"21:04:32",1
"17/04/30","21:20",0.0,16.2,61.8,1006.0,297.2,1.6,3.3,345.1,0.00,8.9,16.0,"21:12:00",1
"17/04/30","21:30",0.0,16.1,61.6,1006.2,284.4,1.6,3.1,331.3,0.00,8.8,16.0,"21:20:40",1
"17/04/30","21:40",0.0,16.1,61.2,1006.2,288.0,1.3,2.1,265.5,0.00,8.7,16.1,"21:32:24",1
"17/04/30","21:50",0.0,15.9,62.2,1006.0,297.7,1.1,1.9,273.3,0.00,8.7,16.0,"21:43:20",1
"17/04/30","22:00",0.0,15.5,65.4,1006.2,182.2,0.7,1.7,265.1,0.00,9.1,16.0,"21:51:36",1
"17/04/30","22:10",0.0,15.1,69.4,1006.7,316.2,1.5,2.0,332.6,0.00,9.6,15.7,"22:08:32",1
"17/04/30","22:20",0.0,14.5,71.7,1006.4,319.3,1.3,2.1,341.1,0.00,9.5,15.8,"22:15:04",1
"17/04/30","22:30",0.0,14.2,72.8,1006.7,307.4,1.0,1.6,312.0,0.00,9.4,15.6,"22:22:24",1
"17/04/30","22:40",0.0,14.0,74.0,1006.7,317.1,1.1,1.6,319.4,0.00,9.5,15.6,"22:37:20",1
"17/04/30","22:50",0.0,13.9,73.8,1006.2,300.8,1.1,1.6,304.7,0.00,9.3,15.6,"22:49:36",1
"17/04/30","23:00",0.0,13.9,73.3,1006.2,303.6,1.2,1.9,317.9,0.00,9.2,15.3,"22:53:04",1
"17/04/30","23:10",0.0,14.1,72.8,1006.2,290.2,1.3,2.5,325.8,0.00,9.3,15.3,"23:05:36",1
"17/04/30","23:20",0.0,14.1,73.0,1006.4,336.0,1.5,2.1,321.5,0.00,9.4,15.2,"23:11:36",1
"17/04/30","23:30",0.0,13.6,74.9,1006.7,291.7,0.5,1.7,342.7,0.00,9.3,15.3,"23:20:16",1
"17/04/30","23:40",0.0,13.1,77.7,1006.4,323.4,1.2,2.4,337.0,0.00,9.3,15.2,"23:38:42",1
"17/04/30","23:50",0.0,12.9,79.0,1006.4,331.5,1.6,2.5,335.6,0.00,9.4,15.2,"23:42:16",1
"17/04/30","24:00",0.0,13.2,77.9,1006.2,304.0,1.3,2.0,337.4,0.00,9.5,15.0,"23:58:16",1
